date,time,logger_ref,Tw ( C ),Tg ( C ),Ta ( C ),RH ( % ),Va ( m/s ),Tr ( C ),WBGT-i ( C ),WBGT-o ( C ),PMV,PPD ( % )
22/08/2017,11:40:32,15001974,20.2,25.3,25.3,62.5,0,25.2,21.7,21.7,0.95,24.24
22/08/2017,11:40:47,15001974,20.2,25.3,25.3,62.6,0,25.3,21.7,21.7,0.97,24.68
22/08/2017,11:41:02,15001974,20.3,25.3,25.3,62.9,0.08,25.2,21.8,21.8,0.94,23.8
22/08/2017,11:41:17,15001974,20.2,25.3,25.3,62.6,0.02,25.3,21.7,21.7,0.97,24.68
22/08/2017,11:41:32,15001974,20.2,25.3,25.4,62.5,0.01,25.3,21.7,21.7,0.98,25.18
22/08/2017,11:41:47,15001974,20.2,25.3,25.4,62.6,0,25.3,21.7,21.7,0.98,25.21
22/08/2017,11:42:02,15001974,20.2,25.3,25.4,62.6,0.03,25.3,21.7,21.7,0.98,25.21
22/08/2017,11:42:17,15001974,20.2,25.3,25.4,62.5,0,25.3,21.7,21.7,0.98,25.18
22/08/2017,11:42:32,15001974,20.2,25.3,25.4,62.5,0,25.3,21.7,21.7,0.98,25.18
22/08/2017,11:42:47,15001974,20.2,25.3,25.4,62.5,0,25.3,21.7,21.7,0.98,25.18
22/08/2017,11:43:02,15001974,20.2,25.3,25.4,62.5,0,25.3,21.7,21.7,0.98,25.18
22/08/2017,11:43:17,15001974,20.2,25.3,25.4,62.5,0,25.3,21.7,21.7,0.98,25.18
22/08/2017,11:43:32,15001974,20.2,25.3,25.4,62.5,0.07,25.3,21.7,21.7,0.98,25.18
22/08/2017,11:43:47,15001974,20.2,25.3,25.4,62.5,0.02,25.3,21.7,21.7,0.98,25.18
22/08/2017,11:44:02,15001974,20.2,25.3,25.4,62.3,0.02,25.3,21.7,21.7,0.98,25.12
22/08/2017,11:44:17,15001974,20.2,25.3,25.4,62.5,0,25.3,21.7,21.7,0.98,25.18
22/08/2017,11:44:32,15001974,20.2,25.3,25.4,62.6,0,25.3,21.7,21.7,0.98,25.21
22/08/2017,11:44:47,15001974,20.3,25.3,25.4,62.6,0,25.3,21.8,21.8,0.98,25.21
22/08/2017,11:45:02,15001974,20.3,25.3,25.4,62.8,0,25.3,21.8,21.8,0.98,25.27
22/08/2017,11:45:17,15001974,20.3,25.3,25.4,62.7,0.01,25.3,21.8,21.8,0.98,25.24
22/08/2017,11:45:32,15001974,20.2,25.3,25.4,62.5,0.01,25.3,21.7,21.7,0.98,25.18
22/08/2017,11:45:47,15001974,20.3,25.3,25.4,62.7,0,25.3,21.8,21.8,0.98,25.24
22/08/2017,11:46:02,15001974,20.3,25.3,25.4,62.9,0,25.3,21.8,21.8,0.98,25.3
22/08/2017,11:46:17,15001974,20.3,25.3,25.4,62.8,0,25.3,21.8,21.8,0.98,25.27
22/08/2017,11:46:32,15001974,20.3,25.4,25.4,62.7,0,25.3,21.8,21.8,0.98,25.24
22/08/2017,11:46:47,15001974,20.3,25.4,25.4,62.8,0,25.3,21.8,21.8,0.98,25.27
22/08/2017,11:47:02,15001974,20.3,25.4,25.4,62.6,0,25.3,21.8,21.8,0.98,25.21
22/08/2017,11:47:17,15001974,20.3,25.4,25.4,62.5,0,25.3,21.8,21.8,0.98,25.18
22/08/2017,11:47:32,15001974,20.3,25.4,25.4,62.6,0,25.4,21.8,21.8,0.99,25.63
22/08/2017,11:47:47,15001974,20.3,25.4,25.4,62.5,0,25.3,21.8,21.8,0.98,25.18
22/08/2017,11:48:02,15001974,20.3,25.4,25.4,62.8,0.07,25.3,21.8,21.8,0.98,25.27
22/08/2017,11:48:17,15001974,20.3,25.4,25.4,62.7,0,25.4,21.8,21.8,0.99,25.67
22/08/2017,11:48:32,15001974,20.2,25.4,25.4,62.5,0,25.4,21.7,21.8,0.99,25.6
22/08/2017,11:48:47,15001974,20.3,25.4,25.4,62.6,0,25.4,21.8,21.8,0.99,25.63
22/08/2017,11:49:02,15001974,20.3,25.4,25.4,62.6,0.01,25.4,21.8,21.8,0.99,25.63
22/08/2017,11:49:17,15001974,20.3,25.4,25.4,63,0,25.4,21.8,21.8,0.99,25.76
22/08/2017,11:49:32,15001974,20.3,25.4,25.4,62.4,0,25.4,21.8,21.8,0.99,25.57
22/08/2017,11:49:47,15001974,20.3,25.4,25.4,62.5,0,25.4,21.8,21.8,0.99,25.6
22/08/2017,11:50:02,15001974,20.3,25.4,25.4,62.4,0,25.4,21.8,21.8,0.99,25.57
22/08/2017,11:50:17,15001974,20.3,25.4,25.4,62.3,0,25.4,21.8,21.8,0.99,25.54
22/08/2017,11:50:32,15001974,20.3,25.4,25.4,62.4,0,25.4,21.8,21.8,0.99,25.57
22/08/2017,11:50:47,15001974,20.3,25.4,25.4,62.5,0.06,25.4,21.8,21.8,0.99,25.6
22/08/2017,11:51:02,15001974,20.3,25.4,25.4,62.7,0.05,25.4,21.8,21.8,0.99,25.67
22/08/2017,11:51:17,15001974,20.3,25.4,25.4,62.7,0,25.4,21.8,21.8,0.99,25.67
22/08/2017,11:51:32,15001974,20.3,25.4,25.4,62.7,0,25.4,21.8,21.8,0.99,25.67
22/08/2017,11:51:47,15001974,20.3,25.4,25.4,62.6,0,25.4,21.8,21.8,0.99,25.63
22/08/2017,11:52:02,15001974,20.3,25.4,25.4,62.6,0,25.4,21.8,21.8,0.99,25.63
22/08/2017,11:52:17,15001974,20.3,25.4,25.4,62.5,0,25.4,21.8,21.8,0.99,25.6
22/08/2017,11:52:32,15001974,20.3,25.4,25.4,62.4,0,25.4,21.8,21.8,0.99,25.57
22/08/2017,11:52:47,15001974,20.2,25.4,25.4,62.4,0,25.4,21.8,21.8,0.99,25.57
22/08/2017,11:53:02,15001974,20.3,25.4,25.4,62.5,0,25.4,21.8,21.8,0.99,25.6
22/08/2017,11:53:17,15001974,20.3,25.4,25.4,62.8,0.07,25.4,21.8,21.8,0.99,25.69
22/08/2017,11:53:32,15001974,20.3,25.4,25.4,62.7,0,25.4,21.8,21.8,0.99,25.67
22/08/2017,11:53:47,15001974,20.3,25.4,25.4,62.4,0,25.4,21.8,21.8,0.99,25.57
22/08/2017,11:54:02,15001974,20.3,25.4,25.4,62.6,0,25.4,21.8,21.8,0.99,25.63
22/08/2017,11:54:17,15001974,20.3,25.4,25.4,63,0,25.4,21.8,21.8,0.99,25.76
22/08/2017,11:54:32,15001974,20.3,25.4,25.4,62.9,0,25.4,21.8,21.8,0.99,25.73
22/08/2017,11:54:47,15001974,20.3,25.4,25.4,62.6,0,25.4,21.8,21.8,0.99,25.63
22/08/2017,11:55:02,15001974,20.3,25.4,25.4,62.4,0,25.4,21.8,21.8,0.99,25.57
22/08/2017,11:55:17,15001974,20.3,25.4,25.4,62.4,0,25.4,21.8,21.8,0.99,25.57
22/08/2017,11:55:32,15001974,20.3,25.4,25.4,62.4,0,25.4,21.8,21.8,0.99,25.57
22/08/2017,11:55:47,15001974,20.3,25.4,25.4,62.4,0,25.4,21.8,21.8,0.99,25.57
22/08/2017,11:56:02,15001974,20.3,25.4,25.4,62.5,0,25.4,21.8,21.8,0.99,25.6
22/08/2017,11:56:17,15001974,20.3,25.4,25.4,62.9,0.02,25.4,21.8,21.8,0.99,25.73
22/08/2017,11:56:32,15001974,20.3,25.4,25.4,62.9,0,25.4,21.8,21.8,0.99,25.73
22/08/2017,11:56:47,15001974,20.3,25.4,25.5,62.7,0,25.4,21.8,21.8,1,26.21
22/08/2017,11:57:02,15001974,20.3,25.4,25.5,62.6,0,25.4,21.8,21.8,1,26.18
22/08/2017,11:57:17,15001974,20.3,25.4,25.5,62.5,0,25.5,21.8,21.8,1.01,26.58
22/08/2017,11:57:32,15001974,20.3,25.4,25.5,62.7,0.08,25.4,21.8,21.8,0.99,25.58
22/08/2017,11:57:47,15001974,20.5,25.5,25.5,63.2,0.01,25.5,22,22,1.02,26.8
22/08/2017,11:58:02,15001974,20.5,25.5,25.5,63.1,0.05,25.5,22,22,1.02,26.77
22/08/2017,11:58:17,15001974,20.5,25.5,25.6,63,0.01,25.5,22,22,1.03,27.3
22/08/2017,11:58:32,15001974,20.4,25.5,25.6,62.4,0.03,25.4,21.9,21.9,1.01,26.67
22/08/2017,11:58:47,15001974,20.4,25.5,25.6,62.1,0,25.5,21.9,21.9,1.02,27.01
22/08/2017,11:59:02,15001974,20.4,25.5,25.6,61.8,0.01,25.5,21.9,22,1.02,26.92
22/08/2017,11:59:17,15001974,20.4,25.5,25.6,62,0.01,25.5,21.9,22,1.02,26.98
22/08/2017,11:59:32,15001974,20.4,25.6,25.6,62,0,25.5,21.9,22,1.02,26.98
22/08/2017,11:59:47,15001974,20.4,25.6,25.6,61.9,0,25.5,21.9,22,1.02,26.95
22/08/2017,12:00:02,15001974,20.5,25.6,25.6,62.7,0.08,25.5,22,22,1.01,26.53
22/08/2017,12:00:17,15001974,20.6,25.6,25.7,62.9,0.37,25.5,22.1,22.1,0.77,17.38
22/08/2017,12:00:32,15001974,20.5,25.6,25.7,62.2,0.04,25.5,22,22,1.03,27.61
22/08/2017,12:00:47,15001974,20.5,25.6,25.7,62.1,0,25.6,22,22,1.04,28.02
22/08/2017,12:01:02,15001974,20.5,25.6,25.7,62.1,0.02,25.6,22,22,1.04,28.02
22/08/2017,12:01:17,15001974,20.5,25.6,25.7,62.1,0.07,25.6,22,22,1.04,28.02
22/08/2017,12:01:32,15001974,20.5,25.6,25.7,61.9,0,25.6,22,22.1,1.04,27.95
22/08/2017,12:01:47,15001974,20.5,25.7,25.7,62,0,25.6,22,22.1,1.04,27.99
22/08/2017,12:02:02,15001974,20.5,25.7,25.7,62.1,0,25.6,22,22.1,1.04,28.02
22/08/2017,12:02:17,15001974,20.5,25.7,25.7,62.1,0,25.7,22.1,22.1,1.05,28.47
22/08/2017,12:02:32,15001974,20.5,25.7,25.7,62,0,25.6,22,22.1,1.04,27.99
22/08/2017,12:02:47,15001974,20.5,25.7,25.7,62.1,0.22,25.6,22.1,22.1,0.86,20.75
22/08/2017,12:03:02,15001974,20.5,25.7,25.7,62.3,0.52,25.6,22.1,22.1,0.71,15.5
22/08/2017,12:03:17,15001974,20.4,25.7,25.7,61.7,0.04,25.7,22,22,1.05,28.34
22/08/2017,12:03:32,15001974,20.3,25.7,25.6,61.7,0.01,25.7,21.9,21.9,1.04,27.77
22/08/2017,12:03:47,15001974,20.3,25.6,25.6,62,0.04,25.7,21.9,21.9,1.04,27.86
22/08/2017,12:04:02,15001974,20.3,25.6,25.5,62.1,0,25.6,21.9,21.9,1.02,26.89
22/08/2017,12:04:17,15001974,20.3,25.6,25.5,62.1,0.04,25.6,21.9,21.9,1.02,26.89
